Vigo, Spain

4:35 AM CEST on September 23, 2017 (GMT +0200)
Vigo

Weather History for LEVX - August, 2013

Change the Weather History Date:

Sunday, August 4, 2013

  Actual Average Record
Temperature  
Mean Temperature 66 °F -  
Max Temperature 77 °F 74 °F 93 °F (1998)
Min Temperature 55 °F 58 °F 53 °F (2000)
Cooling Degree Days 1    
Growing Degree Days 16 (Base 50)    
Moisture  
Dew Point 56 °F    
Average Humidity 78    
Maximum Humidity 100    
Minimum Humidity 35    
Precipitation  
Precipitation 0.00 in 0.06 in - ()
Sea Level Pressure  
Sea Level Pressure 30.18 in    
Wind  
Wind Speed 3 mph ()    
Max Wind Speed 14 mph    
Max Gust Speed 23 mph    
Visibility 8.7 miles    
Events Fog    
Averages and records for this station are not official NWS values.
T = Trace of Precipitation, MM = Missing Value Source: Averaged Metar Reports

Daily Weather History Graph

Daily Weather History Graph

Search for Another Location

Airport or City:

Trip Planner

Search our weather history database for the weather conditions in past years. The results will help you decide how hot, cold, wet, or windy it might be!

Date:

Astronomy

Aug. 04, 2013 Rise Set
Actual Time 7:30 AM CEST 9:50 PM CEST
Civil Twilight 6:59 AM CEST 10:21 PM CEST
Nautical Twilight 6:20 AM CEST 10:59 PM CEST
Astronomical Twilight 5:37 AM CEST 11:42 PM CEST
Moon 5:19 AM CEST (8/4) 8:04 PM CEST (8/4)
Length of Visible Light 15h 22m
Length of Day
14h 19m
Waning Crescent, 6% of the Moon is Illuminated
Aug 4
Waning Crescent
Aug 6
New
Aug 14
First Quarter
Aug 21
Full
Aug 28
Last Quarter

Hourly Weather History & Observations

Time (CEST) Temp. Dew Point Humidity Pressure Visibility Wind Dir Wind Speed Gust Speed Precip Events Conditions
12:00 AM 59.0 °F 55.4 °F 88% 30.24 in - Variable 1.2 mph - N/A   Clear
12:30 AM 59.0 °F 55.4 °F 88% 30.24 in - Variable 1.2 mph - N/A   Clear
1:00 AM 57.2 °F 55.4 °F 94% 30.24 in - Variable 2.3 mph - N/A   Clear
1:30 AM 57.2 °F 55.4 °F 94% 30.24 in - Variable 2.3 mph - N/A   Clear
2:00 AM 58 °F 55 °F 85% 30.23 in 16 mi WNW 2.3 mph - -  
2:00 AM 57.2 °F 55.4 °F 94% 30.24 in - Variable 1.2 mph - N/A   Clear
2:30 AM 57.2 °F 55.4 °F 94% 30.24 in - Variable 2.3 mph - N/A   Clear
3:00 AM 57.2 °F 55.4 °F 94% 30.24 in - Variable 2.3 mph - N/A   Clear
3:30 AM 55.4 °F 53.6 °F 94% 30.21 in - Calm Calm - N/A   Clear
4:00 AM 55.4 °F 53.6 °F 94% 30.21 in - Calm Calm - N/A   Clear
4:30 AM 55.4 °F 53.6 °F 94% 30.21 in - Calm Calm - N/A   Clear
5:00 AM 55.4 °F 55.4 °F 100% 30.18 in - Calm Calm - N/A   Clear
5:30 AM 55.4 °F 55.4 °F 100% 30.18 in - Calm Calm - N/A   Clear
6:00 AM 55.4 °F 53.6 °F 94% 30.18 in - Calm Calm - N/A   Clear
6:30 AM 55.4 °F 53.6 °F 94% 30.18 in - Calm Calm - N/A   Clear
7:00 AM 55.4 °F 53.6 °F 94% 30.18 in - Variable 1.2 mph - N/A   Clear
7:30 AM 55.4 °F 55.4 °F 100% 30.18 in - Variable 1.2 mph - N/A   Clear
8:00 AM 58 °F 55 °F 87% 30.19 in 19 mi SW 3.5 mph - -   Scattered Clouds
8:00 AM 55.4 °F 53.6 °F 94% 30.18 in 6.2 mi Variable 2.3 mph - N/A Fog Patches of Fog
8:30 AM 55.4 °F 55.4 °F 100% 30.18 in - SW 3.5 mph - N/A   Clear
9:00 AM 57.2 °F 57.2 °F 100% 30.18 in - Variable 2.3 mph - N/A   Clear
9:30 AM 59.0 °F 55.4 °F 88% 30.21 in - SSW 3.5 mph - N/A   Clear
10:00 AM 59.0 °F 55.4 °F 88% 30.18 in - SSW 3.5 mph - N/A   Clear
10:30 AM 64.4 °F 57.2 °F 77% 30.18 in - Variable 1.2 mph - N/A   Clear
11:00 AM 66.2 °F 57.2 °F 73% 30.18 in - Calm Calm - N/A   Clear
11:30 AM 68.0 °F 59.0 °F 73% 30.18 in - Variable 1.2 mph - N/A   Clear
12:00 PM 69.8 °F 57.2 °F 64% 30.18 in - Variable 2.3 mph - N/A   Clear
12:30 PM 71.6 °F 55.4 °F 57% 30.18 in - Calm Calm - N/A   Clear
1:00 PM 71.6 °F 55.4 °F 57% 30.18 in - WSW 6.9 mph - N/A   Clear
1:30 PM 71.6 °F 53.6 °F 53% 30.18 in - West 6.9 mph - N/A   Clear
2:00 PM 76 °F 53 °F 35% 30.16 in 22 mi West 10.4 mph - -   Clear
2:00 PM 71.6 °F 55.4 °F 57% 30.18 in - West 9.2 mph - N/A   Clear
2:30 PM 71.6 °F 53.6 °F 53% 30.18 in - WSW 11.5 mph - N/A   Clear
3:00 PM 71.6 °F 55.4 °F 57% 30.18 in - WSW 10.4 mph - N/A   Clear
3:30 PM 73.4 °F 53.6 °F 50% 30.15 in - West 10.4 mph - N/A   Clear
4:00 PM 71.6 °F 53.6 °F 53% 30.15 in - West 12.7 mph - N/A   Clear
4:30 PM 71.6 °F 55.4 °F 57% 30.15 in - West 13.8 mph - N/A   Clear
5:00 PM 69.8 °F 57.2 °F 64% 30.15 in - West 12.7 mph - N/A   Clear
5:30 PM 69.8 °F 55.4 °F 60% 30.15 in - West 11.5 mph - N/A   Clear
6:00 PM 69.8 °F 55.4 °F 60% 30.12 in - West 10.4 mph 23.0 mph N/A   Clear
6:30 PM 69.8 °F 57.2 °F 64% 30.12 in - WSW 9.2 mph - N/A   Clear
7:00 PM 69.8 °F 57.2 °F 64% 30.12 in - West 9.2 mph - N/A   Clear
7:30 PM 69.8 °F 55.4 °F 60% 30.12 in - West 8.1 mph - N/A   Clear
8:00 PM 71 °F 56 °F 50% 30.11 in 22 mi West 4.6 mph - -   Scattered Clouds
8:00 PM 68.0 °F 55.4 °F 64% 30.12 in - WNW 4.6 mph - N/A   Clear
8:30 PM 66.2 °F 59.0 °F 78% 30.12 in - West 5.8 mph - N/A   Clear
9:00 PM 64.4 °F 60.8 °F 88% 30.15 in 6.2 mi West 8.1 mph - N/A   Scattered Clouds
9:30 PM 62.6 °F 59.0 °F 88% 30.15 in 6.2 mi West 4.6 mph - N/A   Scattered Clouds
10:00 PM 62.6 °F 59.0 °F 88% 30.15 in 6.2 mi Variable 2.3 mph - N/A   Scattered Clouds
10:30 PM 62.6 °F 59.0 °F 88% 30.15 in 6.2 mi Variable 2.3 mph - N/A   Mostly Cloudy
11:00 PM 62.6 °F 59.0 °F 88% 30.15 in 6.2 mi Variable 1.2 mph - N/A   Mostly Cloudy
11:30 PM 62.6 °F 59.0 °F 88% 30.15 in 6.2 mi Variable 1.2 mph - N/A   Mostly Cloudy